Location: Highridge
(54.0333°N, 114.1333°W)
Time: 05:47:53
(UTC+00:00)

SO-50 - Pass Details

Date: 13 December 2023
Orbit: 608 x 660 km, 64.6° (Epoch: 02 March)

Event Time Altitude Azimuth Distance (km) Brightness Sun altitude
Exits shadow 14:22:15 12° 323° (NW) 1,880 ? -11.4°
Maximum altitude 14:25:43 27° 18° (NNE) 1,212 ? -10.9°
Drops below altitude 10° 14:29:36 10° 78° (ENE) 2,003 ? -10.4°
Sets 14:32:09 0° 90° (E) 2,899 ? -10.1°
